Green Bay, WI

3:48 AM CDT on June 29, 2017 (GMT -0500)
Austin Straubel International

Weather History for KGRB - February, 2014

Change the Weather History Date:

Wednesday, February 19, 2014

  Actual Average Record
Temperature  
Mean Temperature 31 °F 21 °F  
Max Temperature 41 °F 29 °F 57 °F (2017)
Min Temperature 20 °F 13 °F -17 °F (1936)
Degree Days  
Heating Degree Days 34 44  
Month to date heating degree days 1103 874  
Since 1 July heating degree days 5996 5463  
Cooling Degree Days 0 0  
Month to date cooling degree days 0 0  
Year to date cooling degree days 0 0  
Moisture  
Dew Point 23 °F    
Average Humidity 75    
Maximum Humidity 100    
Minimum Humidity 50    
Precipitation  
Precipitation T in 0.04 in 0.81 in (1971)
Month to date precipitation 0.77 0.68  
Year to date precipitation 2.10 1.81  
Snow  
Snow T in 0.40 in 4.00 in (1890)
Month to date snowfall 13.7 6.8  
Since 1 July snowfall 58.3 37.1  
Snow Depth 20.00 in    
Sea Level Pressure  
Sea Level Pressure 29.83 in    
Wind  
Wind Speed 8 mph (SW)    
Max Wind Speed 14 mph    
Max Gust Speed 19 mph    
Visibility 9 miles    
Events      
T = Trace of Precipitation, MM = Missing Value Source: NWS Daily Summary

Daily Weather History Graph

Daily Weather History Graph

Search for Another Location

Airport or City:

Trip Planner

Search our weather history database for the weather conditions in past years. The results will help you decide how hot, cold, wet, or windy it might be!

Date:

Astronomy

Feb. 19, 2014 Rise Set
Actual Time 6:46 AM CST 5:26 PM CST
Civil Twilight 6:16 AM CST 5:56 PM CST
Nautical Twilight 5:42 AM CST 6:30 PM CST
Astronomical Twilight 5:09 AM CST 7:04 PM CST
Moon 10:33 PM CST (2/19) 8:40 AM CST (2/19)
Length of Visible Light 11h 39m
Length of Day
10h 40m
Waning Gibbous, 79% of the Moon is Illuminated
Feb 19
Waning Gibbous
Feb 22
Last Quarter
Mar 1
New
Mar 8
First Quarter
Mar 16
Full

Hourly Weather History & Observations

Time (CST) Temp. Windchill Dew Point Humidity Pressure Visibility Wind Dir Wind Speed Gust Speed Precip Events Conditions
12:53 AM 28.0 °F 20.0 °F 26.1 °F 92% 29.66 in 6.0 mi West 8.1 mph - N/A   Overcast
1:53 AM 30.9 °F 22.8 °F 27.0 °F 85% 29.66 in 7.0 mi West 9.2 mph - 0.00 in   Overcast
2:53 AM 30.0 °F 20.5 °F 24.1 °F 79% 29.66 in 8.0 mi WNW 11.5 mph - N/A   Clear
3:53 AM 25.0 °F 16.3 °F 21.0 °F 85% 29.68 in 8.0 mi West 8.1 mph - N/A   Clear
4:53 AM 23.0 °F 13.9 °F 19.0 °F 85% 29.70 in 8.0 mi West 8.1 mph - N/A   Clear
5:53 AM 23.0 °F 13.1 °F 19.0 °F 85% 29.73 in 8.0 mi West 9.2 mph - N/A   Clear
6:53 AM 23.0 °F 13.9 °F 18.0 °F 81% 29.77 in 8.0 mi West 8.1 mph - N/A   Clear
7:53 AM 24.1 °F 15.2 °F 19.0 °F 81% 29.79 in 8.0 mi West 8.1 mph - N/A   Clear
8:53 AM 28.9 °F 21.9 °F 21.0 °F 72% 29.81 in 10.0 mi West 6.9 mph - N/A   Clear
9:53 AM 30.9 °F 21.7 °F 21.0 °F 67% 29.84 in 10.0 mi West 11.5 mph - N/A   Clear
10:53 AM 33.1 °F 26.9 °F 21.9 °F 64% 29.85 in 10.0 mi West 6.9 mph - N/A   Clear
11:53 AM 34.0 °F 28.0 °F 24.1 °F 67% 29.86 in 10.0 mi SSW 6.9 mph - N/A   Clear
12:53 PM 37.0 °F 30.4 °F 24.1 °F 59% 29.85 in 10.0 mi SW 9.2 mph - N/A   Clear
1:53 PM 39.0 °F 32.8 °F 24.1 °F 55% 29.85 in 10.0 mi SW 9.2 mph - N/A   Clear
2:53 PM 39.9 °F 33.4 °F 23.0 °F 51% 29.86 in 10.0 mi WSW 10.4 mph - N/A   Clear
3:53 PM 37.9 °F 32.7 °F 25.0 °F 60% 29.88 in 10.0 mi SSW 6.9 mph - N/A   Clear
4:53 PM 37.0 °F 31.0 °F 25.0 °F 62% 29.90 in 10.0 mi South 8.1 mph - N/A   Clear
5:53 PM 36.0 °F 29.6 °F 25.0 °F 64% 29.91 in 10.0 mi South 8.1 mph - N/A   Clear
6:53 PM 33.1 °F 26.9 °F 25.0 °F 72% 29.91 in 10.0 mi South 6.9 mph - N/A   Clear
7:53 PM 32.0 °F 27.5 °F 24.1 °F 73% 29.91 in 10.0 mi South 4.6 mph - N/A   Clear
8:53 PM 30.9 °F 25.2 °F 23.0 °F 72% 29.91 in 10.0 mi SSW 5.8 mph - N/A   Clear
9:53 PM 28.9 °F 23.9 °F 21.9 °F 75% 29.91 in 10.0 mi South 4.6 mph - N/A   Clear
10:53 PM 26.1 °F 20.5 °F 19.9 °F 78% 29.92 in 10.0 mi South 4.6 mph - N/A   Clear
11:53 PM 27.0 °F - 21.0 °F 78% 29.92 in 10.0 mi Calm Calm - N/A   Scattered Clouds